Theta_e
298 298 298 299 300 299 300 301 302 302 303 301 301 301 301 301 300 300 301 302 302 302 303 303 304 304 305 305 307 308 307 311 313 316 321 322 322 322 323 325 326 327 327 326 325 327 328 332 337 335 334 333 340 339
298 298 299 299 299 299 300 302 303 302 301 301 301 301 301 301 301 300 300 302 301 302 302 303 303 304 304 304 305 305 307 308 310 317 319 322 325 324 324 325 325 329 326 326 326 327 331 327 336 334 341 342 342 341
298 299 299 299 299 300 302 303 303 302 300 300 301 300 300 300 300 301 301 302 301 302 302 302 303 303 303 303 303 304 305 306 307 309 311 315 323 325 326 325 326 327 328 329 327 327 329 331 336 339 340 341 342 341
300 299 299 299 300 302 303 304 303 302 300 300 300 300 300 301 301 301 301 301 302 302 303 303 303 303 304 304 304 304 304 305 308 307 307 311 318 322 325 327 331 326 330 330 331 330 331 335 337 340 342 342 341 340
300 300 301 301 301 301 303 303 303 303 301 300 300 300 299 299 300 300 302 302 302 302 303 303 303 305 304 304 304 304 305 305 306 306 307 311 315 320 323 325 328 329 331 334 331 331 336 332 337 342 341 340 339 338
302 303 302 302 301 301 302 302 302 302 303 302 300 300 300 300 299 302 303 303 302 302 302 305 305 305 306 307 308 305 306 306 305 307 307 308 309 315 321 327 328 331 331 333 338 336 336 341 340 340 340 338 337 336
303 303 303 303 302 302 302 303 304 304 304 304 303 301 300 300 301 303 304 303 302 302 301 304 307 307 309 310 309 306 306 306 306 307 308 310 315 316 319 323 327 331 329 331 334 335 337 339 340 339 338 336 332 329
303 302 303 303 303 303 302 303 303 304 304 305 305 303 301 301 301 301 302 301 301 301 301 306 308 308 308 309 309 307 307 307 307 309 310 316 317 317 320 322 323 325 329 330 334 333 336 337 336 335 332 329 329 329
302 302 303 304 304 304 303 303 305 305 306 306 306 304 302 302 303 304 303 302 303 303 304 304 309 312 310 310 311 310 309 310 309 311 315 317 320 320 320 322 325 327 330 332 332 332 332 331 329 328 328 328 328 328
303 304 304 304 305 304 304 305 306 306 307 308 306 304 305 305 304 304 304 303 302 301 300 303 305 309 308 312 311 311 311 314 316 316 316 318 320 318 319 322 322 324 327 329 329 330 328 327 327 327 327 326 325 324
304 305 305 305 306 304 305 306 306 308 309 307 306 305 306 306 306 306 307 307 305 307 302 303 302 306 309 313 314 312 312 315 318 317 318 320 322 321 321 320 324 326 326 327 328 327 327 327 327 327 327 327 328 328
306 306 306 307 306 306 307 307 307 309 309 307 306 305 305 305 307 308 308 307 307 309 306 309 311 306 312 312 312 312 312 311 317 314 316 316 317 315 321 323 324 327 329 329 329 329 329 329 329 329 328 329 329 329
308 308 308 307 306 308 308 306 308 310 309 308 307 306 304 305 307 308 312 308 308 308 308 312 314 314 314 311 314 313 311 313 314 316 314 314 316 321 323 326 327 326 326 327 327 327 327 327 327 327 327 327 327 327
309 309 309 307 308 309 307 306 310 310 309 311 311 314 313 312 306 306 308 309 310 309 312 312 313 315 315 314 315 314 314 317 314 316 315 318 319 321 324 324 322 323 323 323 323 323 324 324 324 325 325 325 325 325
310 310 309 309 309 309 306 309 311 311 313 313 312 316 313 313 313 314 314 314 314 313 312 314 316 316 318 319 318 319 318 315 313 316 319 318 320 323 319 321 323 324 324 324 323 322 322 322 322 322 323 323 324 324
312 311 310 310 309 307 308 310 310 311 312 312 312 312 312 313 314 314 314 315 315 313 314 314 320 321 320 318 317 316 316 315 316 317 317 318 320 322 324 324 325 324 322 320 320 321 322 322 322 322 322 323 323 323
313 311 311 308 309 308 308 310 312 311 312 313 313 311 313 312 313 314 315 316 315 317 320 319 319 320 317 317 315 316 318 316 315 318 319 319 320 321 323 324 325 323 319 318 319 320 322 323 323 323 323 323 323 322
315 313 313 311 308 311 312 311 311 312 312 312 312 313 314 315 315 315 315 317 317 317 317 317 316 317 317 319 319 318 317 319 320 321 320 320 321 321 323 325 326 323 320 319 319 319 318 317 316 316 317 320 322 323
316 315 315 314 313 313 313 314 312 313 314 314 314 316 316 317 318 318 317 317 316 317 317 317 318 317 318 317 317 318 317 318 320 321 321 320 320 319 322 323 324 323 321 321 320 320 319 320 319 318 317 316 315 318
317 316 316 316 315 313 315 315 313 314 316 315 315 317 318 318 318 318 318 318 317 316 316 316 316 316 316 317 318 318 318 317 320 321 322 320 320 321 324 324 322 322 321 321 320 319 319 318 318 318 317 316 316 315
317 316 317 316 316 315 314 315 317 315 316 318 318 318 317 317 317 318 318 318 318 318 317 315 316 316 317 318 318 319 320 320 318 318 320 322 322 322 322 319 319 318 320 319 318 318 319 318 318 318 318 317 316 316
317 317 317 317 316 316 317 315 316 316 317 319 319 318 318 318 317 317 317 318 318 317 317 317 319 319 317 318 319 318 317 318 318 319 319 319 319 319 320 318 318 318 318 320 319 318 318 318 318 317 316 317 316 316
318 318 317 317 318 318 317 316 321 319 318 317 318 318 318 318 318 316 317 317 317 317 318 318 316 317 317 318 318 318 317 318 318 318 319 318 316 314 316 316 317 317 318 319 320 319 318 316 318 316 317 316 316 316
317 318 318 320 321 320 319 321 320 320 319 319 318 318 317 318 317 317 318 317 317 317 316 317 317 316 316 316 316 316 316 316 316 317 316 315 315 316 315 314 314 314 315 315 315 315 315 315 315 315 316 318 316 315
317 318 319 318 321 322 320 320 319 320 320 319 319 319 318 319 318 318 318 317 315 315 315 314 314 314 314 314 314 315 315 315 315 315 315 316 316 316 316 314 313 312 313 314 314 315 315 315 315 315 315 315 316 318
319 321 320 320 321 321 322 321 321 321 321 320 319 320 320 319 319 319 317 314 310 311 312 312 311 311 310 310 310 310 312 312 313 312 311 311 311 311 311 311 310 309 308 310 311 312 312 313 313 313 313 314 314 314
319 320 320 320 321 321 321 320 320 320 319 320 319 319 319 319 319 315 310 307 308 309 309 309 308 308 307 307 307 307 307 309 310 309 309 308 306 306 306 306 305 303 305 306 306 309 310 311 311 312 313 313 314 314
322 322 322 319 320 319 320 319 319 319 317 317 316 318 319 318 313 308 306 306 307 308 307 307 306 305 306 306 305 305 305 305 306 306 308 306 305 303 302 303 302 300 301 301 301 303 303 306 307 308 308 309 311 311
321 321 321 319 319 320 319 319 318 314 313 314 316 313 307 305 305 305 305 306 307 306 306 306 304 304 303 304 304 304 302 302 302 302 303 303 302 301 300 300 299 299 299 299 298 298 298 299 302 303 304 305 306 306
322 321 322 320 319 320 319 318 314 310 309 308 306 305 305 305 305 305 306 305 304 305 305 305 303 302 301 300 301 301 300 300 299 299 299 299 300 299 298 298 298 297 297 297 297 297 297 297 298 299 300 302 303 302
322 321 321 321 321 319 319 316 315 314 313 311 310 309 309 308 307 304 303 304 305 305 304 304 302 301 299 298 298 298 298 298 298 298 297 298 298 297 297 296 296 296 296 296 296 296 296 296 296 297 298 298 299 299
321 321 319 318 321 319 318 318 317 316 314 313 313 312 311 311 312 308 305 305 304 303 302 301 300 298 297 297 297 297 296 297 295 295 295 295 295 295 295 295 295 295 295 295 295 295 295 295 295 295 295 295 295 296
322 320 320 320 320 319 320 319 318 317 316 316 315 315 314 314 312 307 303 302 302 301 301 300 299 297 296 296 296 296 296 296 294 294 293 293 293 292 293 293 293 293 293 294 294 294 293 293 293 293 293 293 293 293
Wind_Speed
24 24 24 25 25 26 25 27 27 30 23 21 18 14 18 18 17 16 13 14 15 13 17 17 20 20 15 12 8 5 9 4 7 10 8 12 13 16 17 21 24 19 17 19 18 22 25 2 6 16 14 15 7 8
24 24 25 25 26 27 27 27 31 21 20 15 12 14 15 15 15 17 15 12 12 15 16 14 17 19 26 25 20 13 14 4 5 4 3 6 7 8 13 17 21 18 16 15 18 17 4 33 23 15 5 4 4 5
23 24 24 25 24 24 24 25 28 18 16 14 14 15 13 13 14 18 15 11 9 12 22 27 28 23 24 27 26 23 19 15 6 5 4 4 5 7 9 15 17 19 19 18 16 21 19 19 22 15 11 10 7 6
23 24 24 23 23 23 22 24 23 18 15 11 12 11 7 5 4 11 17 12 12 7 7 15 12 18 18 16 22 24 25 14 6 2 2 3 4 10 10 7 10 14 9 18 17 14 18 19 18 14 10 8 11 15
22 23 23 23 22 21 24 22 23 20 15 11 10 9 5 1 3 6 10 12 13 11 8 19 25 21 21 26 21 21 23 25 18 2 3 3 6 6 9 12 13 17 14 12 13 18 18 21 22 15 15 17 21 30
21 22 23 23 22 21 20 20 26 24 20 12 10 8 6 5 4 5 6 10 15 14 6 4 8 16 12 15 20 30 25 20 21 9 6 7 10 4 4 7 15 16 11 16 11 14 20 9 17 18 21 21 22 26
22 22 23 23 23 22 21 21 23 25 22 17 13 9 9 7 6 7 4 2 5 6 4 4 5 4 8 14 12 20 21 12 9 7 7 7 4 6 3 11 17 6 17 18 20 13 11 20 24 23 28 28 28 28
22 23 24 25 26 26 23 22 25 24 22 18 12 11 9 10 10 12 12 18 14 5 6 3 4 5 8 8 10 14 15 14 14 6 7 10 9 9 6 15 22 26 25 21 18 18 13 17 25 28 30 33 33 29
24 25 26 27 28 29 24 23 26 27 22 18 10 8 7 5 6 7 9 10 11 10 4 4 3 2 6 12 8 13 12 4 7 6 5 6 5 7 11 16 18 19 10 8 23 18 25 28 31 32 34 32 30 25
26 26 27 28 29 28 24 29 29 26 20 13 5 2 4 5 8 9 4 5 12 7 7 4 4 3 6 10 2 5 6 3 4 7 7 4 8 21 19 18 17 18 15 20 27 32 34 32 30 27 25 25 24 21
27 27 28 29 29 25 26 28 26 23 16 2 2 4 6 9 6 4 3 5 7 4 7 7 14 4 7 4 4 9 2 3 3 3 5 3 3 6 9 13 12 14 14 23 27 29 29 30 29 28 25 23 21 18
27 26 26 27 24 23 26 27 22 19 10 5 7 7 4 2 3 3 2 3 4 3 3 4 6 11 5 6 4 6 3 2 4 4 2 3 4 16 9 11 15 15 21 29 29 28 29 28 25 25 23 21 18 16
25 24 24 24 19 23 24 20 18 14 7 3 2 1 1 1 2 3 3 3 2 3 5 6 5 6 8 6 4 2 4 3 6 3 2 3 18 9 11 22 27 28 33 34 31 29 28 26 22 21 19 16 15 12
23 22 20 16 22 23 21 16 13 11 2 3 5 4 4 3 2 4 5 6 8 10 12 10 6 2 1 3 4 3 4 3 1 3 2 3 18 11 25 34 33 30 29 29 29 27 22 21 19 16 14 12 11 10
22 19 13 18 19 19 13 12 11 9 3 5 5 5 4 13 20 16 15 9 10 11 11 6 5 5 4 4 1 5 4 5 5 4 3 17 21 20 24 23 25 26 23 19 21 19 18 16 15 14 12 11 11 10
21 17 20 17 14 12 11 7 11 8 4 5 5 5 14 10 14 19 24 18 16 13 5 5 4 3 7 4 6 8 3 5 3 2 9 14 15 19 18 21 20 21 22 21 21 16 15 17 17 16 14 12 11 10
20 18 21 14 11 15 9 7 5 6 6 6 6 10 16 11 13 19 20 23 17 10 5 4 7 6 4 5 5 4 3 2 7 11 14 12 13 14 14 18 18 18 20 20 19 17 18 17 15 14 14 12 11 11
21 21 22 19 7 11 17 11 5 6 7 5 6 12 13 11 13 19 19 22 15 12 15 7 7 8 5 6 4 4 8 13 14 15 13 9 8 7 13 15 16 16 16 17 18 18 18 17 17 16 14 11 10 9
16 17 20 17 14 11 6 9 7 5 7 8 11 12 10 15 16 19 21 24 24 17 5 6 6 4 4 5 8 17 20 19 12 11 13 12 8 9 11 12 11 12 13 14 13 14 13 14 13 13 11 10 10 9
10 12 12 15 13 5 4 4 7 4 6 9 12 16 10 16 18 20 20 19 18 18 11 5 4 7 9 17 19 21 21 19 14 17 17 14 12 11 9 8 11 13 11 11 12 11 10 10 10 10 10 9 9 7
8 10 9 8 7 8 3 3 4 4 6 6 14 12 17 20 25 27 26 20 21 8 6 13 16 15 15 16 19 13 13 15 17 18 16 19 15 14 13 12 10 11 10 9 10 8 6 8 7 6 4 5 6 6
10 8 6 6 5 3 4 6 2 5 4 6 12 12 15 17 19 21 23 25 15 16 8 7 8 11 20 24 22 22 22 19 15 14 15 16 19 17 15 14 14 11 11 9 8 7 6 6 6 5 2 2 3 3
6 6 4 5 2 3 1 5 2 2 1 3 5 5 8 11 14 17 11 19 18 17 13 14 18 18 19 17 17 20 20 20 16 20 16 13 15 13 12 10 8 8 9 9 8 6 6 5 6 6 5 2 0 1
5 4 3 3 4 1 2 2 1 2 1 0 1 3 3 4 6 7 6 12 18 18 20 18 17 18 19 21 22 22 20 19 17 15 17 14 15 16 15 15 15 17 15 13 13 11 9 9 10 9 6 3 4 4
4 6 4 5 4 4 2 1 2 2 1 1 1 2 1 0 2 3 4 10 18 18 18 19 19 19 18 16 16 16 18 17 16 15 15 11 8 7 7 9 11 13 12 9 10 11 11 9 8 8 8 8 6 4
5 5 8 9 7 6 6 4 5 5 4 2 1 0 2 2 2 4 4 9 13 17 17 18 17 16 16 16 16 16 16 14 11 11 13 13 12 11 10 10 10 11 14 12 11 11 11 11 11 11 9 10 11 9
5 7 7 6 6 10 5 6 7 5 5 5 5 6 3 2 3 4 8 11 14 13 14 14 15 14 14 13 13 12 12 11 9 6 7 9 12 13 12 12 13 14 14 14 14 13 13 13 12 12 12 11 11 11
4 7 8 11 7 10 7 7 5 6 4 5 6 4 4 6 4 5 11 11 12 10 11 14 14 14 13 13 13 12 12 10 8 8 4 5 9 12 13 11 12 16 13 14 15 13 13 11 11 10 10 10 10 10
3 6 4 7 5 5 6 7 7 8 13 6 4 4 5 11 15 13 15 17 14 14 14 14 16 15 14 12 11 11 12 13 13 13 12 11 12 13 13 13 13 13 14 13 15 16 16 11 11 10 9 9 9 9
3 5 3 2 3 4 5 5 8 12 22 22 24 24 20 17 15 15 10 10 11 11 13 14 15 16 15 14 13 12 11 12 13 12 13 13 12 11 11 12 13 14 14 15 14 13 15 12 10 9 9 8 8 9
3 3 3 2 2 3 5 8 8 6 6 9 12 12 10 9 6 4 6 8 8 11 14 15 16 15 15 15 15 14 13 13 12 11 10 8 8 10 12 13 14 15 15 14 13 13 14 13 11 10 10 9 9 10
3 4 6 3 2 5 6 5 5 2 6 5 5 6 5 6 3 3 3 7 9 11 12 15 16 16 15 13 12 11 11 9 9 10 10 9 10 12 14 14 15 14 14 13 12 13 13 13 12 12 11 11 11 11
4 5 5 2 2 4 6 6 5 4 5 3 2 0 2 3 6 5 4 7 9 11 13 15 15 14 13 12 12 11 11 9 15 14 13 15 16 17 13 12 12 12 13 12 12 12 12 13 14 14 14 14 14 14
Wind_Direction
336 335 333 333 333 334 332 330 325 325 323 310 298 285 281 255 249 249 250 236 225 257 266 255 255 262 251 251 270 321 300 198 242 251 252 233 237 224 223 226 210 202 199 215 222 228 232 219 185 217 232 236 253 254
336 333 332 332 334 334 335 333 332 331 335 330 317 307 293 269 256 235 243 242 239 240 258 267 260 253 248 253 264 288 282 313 327 283 337 301 267 245 223 219 232 205 210 218 209 219 309 210 230 217 258 257 250 255
337 334 335 337 338 341 343 342 342 339 336 337 336 322 303 279 230 231 231 236 236 265 278 258 255 259 253 241 244 252 245 256 250 331 331 298 280 293 231 235 231 223 233 230 237 211 219 224 233 250 261 254 248 206
338 338 340 341 346 347 346 345 348 348 343 338 344 349 1 32 199 214 228 234 232 264 276 280 272 255 248 244 237 233 235 237 255 46 2 285 289 346 278 306 289 249 243 226 244 245 206 215 227 237 232 192 157 144
343 341 342 343 343 338 352 358 359 353 349 341 338 340 337 330 220 225 239 239 236 242 291 296 292 284 247 237 226 221 220 224 226 150 253 251 281 299 281 279 263 254 244 240 235 214 213 213 208 189 163 159 153 142
343 342 345 344 343 338 337 352 349 350 347 334 331 322 303 289 265 253 265 231 230 234 259 289 317 271 266 218 222 217 214 215 218 205 220 250 253 277 277 270 261 261 268 276 278 306 224 229 179 167 152 149 146 142
339 340 343 343 340 338 337 339 341 339 338 331 313 300 295 278 252 235 306 164 191 253 256 269 245 277 270 215 190 191 201 197 195 215 220 246 256 212 264 253 265 240 305 287 257 257 209 174 164 156 144 139 136 133
333 333 335 337 335 330 325 328 330 334 328 326 306 284 273 279 278 267 262 255 253 249 235 263 273 270 200 174 154 168 175 183 200 214 231 226 205 202 247 257 256 277 285 273 226 201 187 159 147 146 142 137 133 129
328 329 330 332 332 332 329 327 326 327 328 325 293 279 274 236 233 223 253 231 227 221 257 233 257 299 196 201 160 175 170 180 212 209 230 218 200 218 240 265 292 287 259 227 180 158 147 140 138 137 135 132 125 124
323 324 325 327 330 332 330 332 328 326 322 318 291 173 231 213 245 280 244 190 196 212 230 249 223 258 305 176 151 165 175 224 211 207 196 234 246 250 241 268 271 260 241 188 162 151 141 134 132 132 126 120 119 123
320 321 323 326 328 332 334 333 334 333 337 293 224 226 244 274 272 215 228 217 201 222 211 231 203 214 241 201 189 200 196 217 228 187 218 246 243 246 241 255 210 197 166 143 138 135 132 125 120 115 111 109 110 112
319 320 322 325 329 336 337 339 340 340 340 306 280 298 308 310 259 261 220 223 228 259 252 234 215 208 238 159 172 187 229 222 233 163 217 279 263 278 195 177 169 148 135 125 120 114 109 106 107 106 106 105 103 102
325 324 323 326 331 336 342 344 343 342 344 12 1 304 350 29 305 279 311 252 251 233 248 261 235 219 179 188 223 171 221 221 168 154 182 291 285 111 156 127 107 104 101 98 97 96 95 96 97 99 103 104 105 104
330 326 324 324 334 340 347 348 351 356 27 356 334 349 354 3 294 252 256 263 268 223 257 310 306 297 255 188 208 188 222 162 67 52 45 269 25 87 87 103 106 97 91 97 100 97 93 93 93 93 96 100 105 105
340 334 333 334 337 341 355 358 7 13 10 11 4 5 351 317 312 313 321 299 297 304 322 284 237 231 211 234 205 4 56 49 30 2 356 18 28 76 99 90 97 92 89 87 91 90 89 93 97 96 95 97 99 100
358 5 359 348 346 6 9 45 37 39 24 25 33 338 323 317 334 342 343 343 350 332 290 243 284 9 35 22 19 29 45 18 320 342 37 34 32 55 84 103 96 97 93 86 82 92 101 96 94 93 91 90 92 95
2 4 2 10 52 43 58 38 17 31 28 21 349 323 338 309 320 326 347 349 349 359 10 19 34 20 39 20 33 16 347 339 358 28 43 42 44 47 78 87 91 90 94 94 96 93 92 95 97 95 93 92 92 92
11 11 23 40 55 43 39 33 43 38 25 355 330 342 345 358 18 13 360 7 17 28 47 48 39 25 31 6 11 11 8 13 36 43 35 36 73 75 68 69 77 88 101 100 94 89 87 85 82 81 83 86 88 85
11 27 34 35 31 31 27 26 23 45 20 353 341 345 342 342 1 1 20 27 38 42 53 37 48 24 7 20 8 27 27 24 8 30 42 48 75 85 76 85 78 89 94 80 79 77 75 77 75 72 72 71 71 75
5 19 30 31 37 37 45 29 14 15 358 338 348 349 357 4 8 28 30 32 43 37 35 35 37 11 9 44 37 27 27 34 39 52 51 57 70 87 87 91 100 100 91 84 81 83 73 67 58 58 59 64 67 69
13 16 30 42 45 52 66 20 27 353 329 0 12 30 38 46 41 35 31 35 53 45 64 62 78 61 30 23 16 14 21 31 44 53 58 61 70 79 83 89 86 97 102 94 97 96 74 64 57 55 61 76 76 83
8 23 33 31 46 51 49 13 1 342 7 9 32 44 40 47 42 39 42 46 49 40 34 20 6 19 38 42 36 51 42 41 48 48 54 59 61 60 68 74 74 76 73 55 45 51 60 61 55 45 29 81 89 90
2 21 37 33 71 35 21 3 338 12 349 18 16 43 32 48 41 44 49 48 47 37 42 46 53 53 47 46 46 44 39 41 47 50 51 52 48 48 55 50 45 31 15 15 15 24 28 37 11 4 7 15 100 227
29 43 23 29 16 21 316 258 270 309 343 308 36 71 48 45 51 54 53 42 32 41 40 42 43 49 45 41 39 34 34 39 45 47 51 44 58 47 49 52 48 50 43 38 36 36 37 33 30 16 356 316 309 277
39 19 7 355 338 312 269 257 252 260 308 122 122 123 106 320 74 76 56 23 28 32 29 31 37 38 36 34 31 28 27 27 30 38 41 37 34 33 47 55 47 41 29 20 12 12 10 6 7 11 8 8 5 303
64 23 12 344 340 336 347 335 11 355 332 314 36 3 213 168 92 65 56 18 21 28 25 24 22 21 24 21 15 12 9 12 13 24 31 32 36 35 27 22 13 3 9 2 357 351 346 343 340 335 323 322 322 314
30 11 4 2 342 345 348 4 18 13 14 0 356 321 285 178 97 73 57 41 48 33 23 21 20 17 13 11 11 10 10 9 10 17 22 27 27 28 21 15 9 359 357 352 355 346 338 333 327 326 319 311 305 304
7 2 5 11 30 27 24 12 20 19 341 343 323 296 359 29 55 80 80 54 48 30 23 20 19 13 9 6 5 8 10 12 3 7 327 357 3 2 9 4 353 359 2 352 355 351 351 342 333 326 321 317 310 313
7 355 341 20 20 42 25 15 26 9 326 304 347 45 56 48 75 75 60 52 47 36 21 11 14 13 11 12 10 8 12 12 11 9 5 354 350 351 355 357 357 357 354 352 349 344 340 340 335 328 323 314 308 309
347 346 341 24 30 43 43 49 105 102 72 81 99 104 106 108 105 88 87 67 41 27 15 10 5 9 6 6 6 6 4 3 4 360 352 350 349 347 353 354 352 350 348 348 345 343 341 354 340 336 329 324 313 311
324 344 347 348 71 106 132 133 126 102 82 104 130 129 142 158 157 88 28 17 12 4 8 8 4 1 3 2 1 357 354 357 359 3 5 4 354 353 350 348 344 343 343 346 348 349 352 356 351 348 343 340 336 337
325 339 339 4 114 160 162 185 193 180 167 185 199 195 197 208 146 96 15 20 6 7 7 8 4 1 357 2 0 2 7 4 16 15 17 7 355 347 345 340 340 342 345 347 346 346 349 354 352 352 349 346 341 336
346 356 352 15 133 192 215 210 201 204 198 231 187 145 4 47 76 42 25 18 20 12 8 3 2 2 6 11 14 18 19 5 4 359 348 342 337 341 353 348 350 347 344 345 344 343 344 344 342 339 337 334 331 328